Other Public Products
Issued by NWS Grand Forks, ND

Home | Current Version | Previous Version | Graphics & Text | Print | Product List | Glossary On
Versions: 1 2 3 4 5 6 7 8 9 10 11 12 13 14 15 16 17 18 19 20 21 22 23 24 25 26 27 28 29 30 31 32 33 34 35 36 37 38 39 40 41 42 43 44 45 46 47 48 49 50
000
FPUS83 KFGF 191431
OPUFGF
PRAIRIE TO PINES WEATHER ROUNDUP
NATIONAL WEATHER SERVICE EASTERN NORTH DAKOTA/GRAND FORKS ND
900 AM CDT THU OCT 19 2017

 **SATELLITE DATA USED TO AUGMENT SKY COVER AT AUTOMATED STATIONS**
 *****  WEATHER ACROSS EASTERN NORTH DAKOTA  *****

CITY           SKY/WX    TMP DP  RH WIND       PRES   REMARKS
GRAND FORKS    FAIR      39  28  64 SE10      29.85S
GRAND FORKS AF FAIR      39  27  61 S8        29.84F
GRAND CITY NWS NOT AVBL
BUXTON           N/A     41  33  73 SE7         N/A
DEVILS LAKE    FAIR      43  33  68 SE10      29.79F
FARGO          FAIR      45  31  58 SE13      29.88F
WAHPETON ARPT  NOT AVBL
$$

 *****  WEATHER ACROSS CENTRAL AND WESTERN NORTH DAKOTA  *****

CITY           SKY/WX    TMP DP  RH WIND       PRES   REMARKS
JAMESTOWN      FAIR      45  31  58 S10       29.82F
BISMARCK       FAIR      42  34  73 SE8       29.81R
MINOT          FAIR      50  29  44 S16       29.70F
MINOT AFB      FAIR      47  30  51 S6        29.69S
GARRISON         N/A     44  34  67 S8        29.75F
WILLISTON      FAIR      37  30  75 S5        29.71S
DICKINSON      FAIR      46  30  53 S7        29.76S
HETTINGER      FAIR      35  28  75 W3        29.82S
$$

 *****  OTHER OBSERVATIONS NORTHEAST NORTH DAKOTA  *****

CITY           SKY/WX    TMP DP  RH WIND       PRES   REMARKS
WALHALLA       FAIR     N/A N/A N/A E6        29.81F
LANGDON        FAIR      43  27  52 SE10      29.79F
CAVALIER       FAIR      39  28  65 SE6       29.82F
GRAFTON        FAIR      39  28  65 SE7       29.85F
CANDO          FAIR      37  34  87 SE7       29.79S
FORT TOTTEN      N/A     42  27  54 SE9       29.95S
ROLLA          FAIR      45  25  45 S9        29.76S
RUGBY          FAIR      43  30  61 S10       29.75S
 ***** THE ABOVE OBSERVATIONS ARE NON NWS ARE NOT QUALITY
        CONTROLLED AND MAY MIS-REPORT RAIN FOR SNOW...
$$

 *****  OTHER OBSERVATIONS SOUTHEAST NORTH DAKOTA *****

CITY           SKY/WX    TMP DP  RH WIND       PRES   REMARKS
COOPERSTOWN    FAIR      45  30  57 S13G18    29.83S
VALLEY CITY    FAIR      45  30  57 S13       29.86R
OAKES          NOT AVBL
GWINNER        SUNNY     50  32  50 SW12G17   29.87S
SHEYENNE NWR     N/A     38  34  86 SE3       29.95S
BUFFALO          N/A     42  30  63 S10         N/A
WYNDMERE       NOT AVBL
 ***** THE ABOVE OBSERVATIONS ARE NON NWS ARE NOT QUALITY
       CONTROLLED AND MAY MIS-REPORT RAIN FOR SNOW...
$$

  *****  WEATHER ACROSS NORTHERN MINNESOTA  *****

CITY           SKY/WX    TMP DP  RH WIND       PRES   REMARKS
FLAG ISLAND    FAIR      39  23  52 SW3       29.87R
WARROAD        FAIR      39  28  65 S6        29.89S
ROSEAU         FAIR      39  30  70 S6        29.88S
HALLOCK        FAIR      41  25  52 SE9       29.85S
THF RVR FALLS  FAIR      39  28  64 SE7       29.90F
HALSTAD          N/A     46  30  54 S12         N/A
FOSSTON        FAIR      46  28  49 SE6       29.92R
BAUDETTE       FAIR      39  26  59 CALM      29.91R
WASKISH        FAIR      43  30  61 CALM      29.93R
CROOKSTON      FAIR      43  28  56 S9        29.89S
$$
  *****  WEATHER ACROSS CENTRAL AND WEST MINNESOTA  *****

CITY           SKY/WX    TMP DP  RH WIND       PRES   REMARKS
BEMIDJI        FAIR      43  30  59 S5        29.94R
PARK RAPIDS    FAIR      39  31  72 SE3       29.96S
WADENA         FAIR      41  34  75 CALM      29.97S
DETROIT LAKES  FAIR      45  36  70 SE7       29.94S
MOORHEAD       FAIR      46  32  57 SE12      29.90S
FERGUS FALLS   FAIR      48  34  57 S10       29.95F
ELBOW LAKE     FAIR      47  33  59 SE10      29.96S
MORRIS MN      FAIR      45  36  70 SE10      29.96S
STAPLES        FAIR      41  34  75 S5        29.99R
WHEATON        FAIR      45  34  65 SE9       29.94F
$$
  *****  WEATHER ELSEWHERE ACROSS MINNESOTA  *****

CITY           SKY/WX    TMP DP  RH WIND       PRES   REMARKS
DULUTH         FAIR      44  28  53 W13       29.99R
INTRNTL FALLS  FAIR      40  23  50 SW6       29.92R
ELY            FAIR      45  21  39 W10       29.94R
CLOQUET        FAIR      46  27  46 CALM      30.00R
BRAINERD       FAIR      39  32  76 CALM      30.01R
HIBBING        FAIR      39  27  62 CALM      29.96R
ALEXANDRIA     FAIR      51  29  42 S12       29.99S
SAINT CLOUD    FAIR      40  36  86 S5        30.03R
MINNEAPOLIS    PTSUNNY   46  36  68 S5        30.07R
$$

  *****  WEATHER ACROSS SOUTH DAKOTA  *****

CITY           SKY/WX    TMP DP  RH WIND       PRES   REMARKS
SIOUX FALLS    FAIR      52  35  52 S9        30.04S
BROOKINGS      FAIR      43  32  65 S14       30.01F
WATERTOWN      FAIR      45  35  68 S12       29.96S
HURON          FAIR      43  33  68 SE9       29.96S
SISSETON         N/A     58  30  34 S21       29.88F
ABERDEEN       FAIR      44  32  62 S16       29.91S
MITCHELL       FAIR      46  35  65 SE9       30.00R
PIERRE         FAIR      49  37  63 SE12      29.87S
MOBRIDGE       FAIR      47  38  71 S12       29.82S
RAPID CITY     FAIR      48  27  44 SE7       29.87S
$$

  *****  SOME WEATHER IN NEARBY STATES *****

CITY           SKY/WX    TMP DP  RH WIND       PRES   REMARKS
GLASGOW MT     FAIR      43  34  70 E6        29.66S
GREAT FALLS MT FAIR      59  21  23 S20       29.67R
CHEYENNE WY    FAIR      44  18  35 W13       30.09S
SCOTTSBLUFF NE FAIR      38  30  73 CALM      30.02R
OMAHA NE       FAIR      53  47  79 CALM      30.08S
DES MOINES IA  FAIR      55  36  48 E12       30.12R
DAVENPORT IA   FAIR      54  47  77 NE5       30.18R
CHICAGO IL     PTSUNNY   58  41  53 NW5       30.16R
EAU CLAIRE WI  FAIR      43  39  86 CALM      30.09R
LA CROSSE WI   FAIR      49  40  71 S6        30.13R
$$

  *****  SOME NATIONAL WEATHER *****

CITY           SKY/WX    TMP DP  RH WIND       PRES   REMARKS
LA GUARDIA NY  FAIR      63  45  51 SW8       30.24F
RALEIGH NC     FAIR      58  53  84 CALM      30.33R
ATLANTA GA     FAIR      59  43  55 E7        30.33R
NEW ORLEANS LA FAIR      72  65  78 NE8       30.18R
OKLAHOMA CITY  PTSUNNY   55  46  71 S10       30.13R
ALBUQUERQUE NM MOCLDY    51  27  39 N5        30.15R
SALT LAKE CITY MOCLDY    44  32  62 S5        30.00S
LOS ANGELES CA CLOUDY    67  62  84 E7        29.90R
BOISE ID       FAIR      48  27  44 SE10      29.84S
SEATTLE WA     LGT RAIN  52  50  93 S13       29.60F
$$

*** WEATHER ACROSS MANITOBA...SASKATCHEWAN AND ONTARIO ***
                ***ONTARIO***

CITY           SKY/WX    TMP DP  RH WIND       PRES   REMARKS
GERALDTON      PTSUNNY   48  30  49 W14G25    29.65R
THUNDER BAY    CLOUDY    48  23  37 W14G21    29.84R
SIOUX LOOKOUT  PTSUNNY   45  28  53 W13G22    29.80R
TORONTO        PTSUNNY   61  50  67 SW15G25   30.00R
BIG TROUT LK   CLOUDY    36  34  93 W22G33    29.51R
PICKLE LAKE    PTSUNNY   37  27  65 W29       29.66R
DRYDEN         SUNNY     43  25  49 W14G20    29.83R
KENORA         PTSUNNY   41  21  45 W8        29.85R
$$
                *** MANITOBA***

CITY           SKY/WX    TMP DP  RH WIND       PRES   REMARKS
BRANDON        CLOUDY    32  23  69 E8        29.71F WCI  25
DAUPHIN        CLEAR     34  23  64 N2        29.69F HAZE
ISLAND LAKE    LGT RAIN  36  30  80 NW10G20   29.69R
PILOT MOUND      N/A     37  25  60 SE9         N/A
THE PAS        MOCLDY    30  27  86 SE6       29.70R WCI  24
THOMPSON       MOCLDY    32  30  93 N7        29.75R
WINNIPEG       PTCLDY    36  21  55 SE7       29.81F
LYNN LAKE      CLOUDY    28  27  93 E8        29.69F WCI  20
CHURCHILL      LGT RAIN  36  32  87 NE17      29.73R
GILLAM         LGT SNOW  34  32  93 N13       29.68R WCI  25
$$
                ***SASKATCHEWAN***

CITY           SKY/WX    TMP DP  RH WIND       PRES   REMARKS
ESTEVAN        CLOUDY    46  28  49 SW13G18   29.65F
KINDERSLEY     MOCLDY    57  36  44 SW25G33   29.39S
LLOYDMINSTER   MOCLDY    30  25  80 SE6       29.35R WCI  24
PRINCE ALBERT  MOCLDY    36  21  55 E13       29.48F
REGINA         CLOUDY    41  27  56 SE9       29.57F
YORKTON        CLEAR     39  21  48 S13       29.60F



USA.gov is the U.S. government's official web portal to all federal, state and local government web resources and services.